Regional Weather Roundup
Issued by NWS

Home | Current Version | Previous Version | Graphics & Text | Print | Product List | Glossary On
Versions: 1 2 3 4 5 6 7 8 9 10 11 12 13 14 15 16 17 18 19 20 21 22 23 24 25 26 27
000
ASUS45 KTFX 261110
RWRMT
MONTANA REGIONAL WEATHER ROUNDUP
NATIONAL WEATHER SERVICE GREAT FALLS MT
500 AM MDT SUN MAR 26 2017

NOTE: "FAIR" INDICATES FEW OR NO CLOUDS BELOW 12000 FEET WITH NO
SIGNIFICANT WEATHER AND/OR OBSTRUCTIONS TO VISIBILITY.

MTZ001>007-043-261200-
WEST OF THE DIVIDE

CITY           SKY/WX    TMP DP  RH WIND       PRES   REMARKS
KALISPELL      MOCLDY    27  25  92 CALM      29.97F
MISSOULA       PTCLDY    29  27  92 NW6       30.01F WCI  23
BUTTE          CLOUDY    26  22  84 CALM      29.97S
MULLAN PASS    CLOUDY    23  23 100 S3        29.91F
ANACONDA         N/A     27  23  86 SE6       29.97F WCI  20
DEER LODGE       N/A     28  27  93 CALM      30.00F
EUREKA           N/A     28  27  93 CALM      29.97F
HAMILTON         N/A     36  30  80 W5        29.99F
RONAN            N/A     33  26  76 CALM      30.02F
$$

MTZ008-052>055-261200-
SOUTHWEST MONTANA

CITY           SKY/WX    TMP DP  RH WIND       PRES   REMARKS
BOZEMAN        PTCLDY    30  27  88 S6        29.96S WCI  24
DILLON         MOCLDY    31  21  66 S9        29.95S WCI  23
W YELLOWSTONE  CLOUDY    30  25  80 SW7       29.97S WCI  23
ENNIS          CLEAR     32  28  86 CALM      30.00R
THREE FORKS      N/A     28   1  31 CALM      29.96S
$$

MTZ009-010-012-014-046-048-049-054-261200-
EAST SLOPES AND CENTRAL MONTANA

CITY           SKY/WX    TMP DP  RH WIND       PRES   REMARKS
CUT BANK       CLEAR     31  19  61 W13       29.89R WCI  21
GREAT FALLS    CLEAR     33  22  63 SW13      29.92R WCI  24
MALMSTROM AFB  CLEAR     29  22  77 SW10      29.93R WCI  19
HELENA         CLOUDY    37  27  67 SW9       29.96R WCI  30
AUGUSTA          N/A     36  13  39 W16G25    29.90S WCI  26
BOWMANS CRNR     N/A     30  21  69 S5        29.90S
CHOTEAU          N/A     27  21  80 CALM      29.93R
FAIRFIELD        N/A     28  20  70 SE5       29.91R
POWER            N/A     25  19  78 W3        29.90S
RAYNESFORD       N/A     29  21  73 CALM      29.93S
$$

MTZ011-013-016-021-045-047-050-051-261200-
NORTH CENTRAL MONTANA

CITY           SKY/WX    TMP DP  RH WIND       PRES   REMARKS
HAVRE          PTCLDY    32  26  78 SW8       29.92R WCI  25
LEWISTOWN      CLOUDY    30  21  69 CALM      29.94S
N BAR RANCH    CLOUDY    36  19  51 W8        29.94S WCI  29
CHINOOK          N/A     36  25  64 SW6       29.92S WCI  31
DENTON         MOCLDY    31  24  75 SE13      29.90S WCI  21
GEYSER           N/A     32  22  66 SW9       29.91F WCI  24
GRASS RANGE      N/A     35  23  62 W14       29.89S WCI  25
STANFORD         N/A     28  21  75 S3        29.93R
WINIFRED         N/A     36  23  59 SW5       29.92S
$$

MTZ017>020-022>027-061-062-261200-
NORTHEAST MONTANA

CITY           SKY/WX    TMP DP  RH WIND       PRES   REMARKS
GLASGOW        CLEAR     33  26  75 SE5       29.86S
JORDAN           N/A     30  27  88 W7        29.89R WCI  23
SIDNEY         CLOUDY    37  31  78 S3        29.89S
WOLF POINT     PTCLDY    32  29  88 NE6       29.88S WCI  26
MALTA          CLOUDY    32  27  80 SW9       29.90S WCI  24
PLENTYWOOD       N/A     39  34  81 CALM      29.89S
POPLAR           N/A     36  30  80 NE3       29.89S
$$

MTZ028>42-056>058-261200-
SOUTHCENTRAL AND SOUTHEAST MONTANA

CITY           SKY/WX    TMP DP  RH WIND       PRES   REMARKS
BAKER          CLOUDY    40  37  89 S7        29.90F
BILLINGS       PTCLDY    37  32  82 SW10      29.90F WCI  30
LIVINGSTON     CLOUDY    32  28  85 NW9       29.94R WCI  24
MILES CITY     CLOUDY    42  36  79 CALM      29.91S
BIG TIMBER     MOCLDY    32  30  93 W12       29.95R WCI  23
EKALAKA          N/A     40  36  86 SE6       29.89F
FORSYTH          N/A     43  37  81 CALM      29.91R
HARLOWTON      MOCLDY    32  23  70 W13       29.93R WCI  22
LAUREL           N/A     33  25  73 SW5       29.90F
$$

REGIONAL REPORTS...DAKOTAS

CITY           SKY/WX    TMP DP  RH WIND       PRES   REMARKS
WILLISTON      CLOUDY    36  32  85 CALM      29.89S
MINOT          CLOUDY    38  33  82 SW7       29.89S
DICKINSON      CLOUDY    38  34  85 SE8       29.88S
BEACH            N/A    N/A N/A N/A MISG        N/A
TIOGA            N/A     34  34 100 NE3       29.90S
WATFORD CITY     N/A     36  32  87 CALM      29.89S
BISMARCK       CLOUDY    38  34  85 CALM      29.93S
GRAND FORKS    CLOUDY    34  33  96 S8        29.97R WCI  27
FARGO          CLOUDY    34  33  96 SE3       29.98S
BUFFALO SD       N/A     45  36  70 N17       29.82S
RAPID CITY     LGT RAIN  42  36  79 N18       29.83F
$$

REGIONAL REPORTS...WYOMING/IDAHO/WASHINGTON

CITY           SKY/WX    TMP DP  RH WIND       PRES   REMARKS
GILLETTE       CLOUDY    39  36  89 N7        29.89F
SHERIDAN       CLOUDY    35  33  92 SW3       29.92F
BUFFALO WY     CLOUDY    38  33  82 W7        29.91F
YELLOWSTONE LA   N/A     21  19  92 CALM      29.98S
IDAHO FALLS    CLEAR     31  27  85 SW10      29.98R WCI  22
SALMON         CLEAR     30  21  69 CALM      29.98S
BOISE          CLEAR     40  28  62 SE7       29.96F
SPOKANE        MOCLDY    35  31  85 SE6       29.97F WCI  30
$$

REGIONAL REPORTS...ALBERTA

CITY           SKY/WX    TMP DP  RH WIND       PRES   REMARKS
EDMONTON       CLEAR     32  28  86 W9        29.81R WCI  24
CALGARY        PTCLDY    36  12  38 W13G21    29.82R WCI  27
LETHBRIDGE     CLEAR     30  21  69 W15       29.87R WCI  19
MEDICINE HAT   CLEAR     28  23  80 SW8       29.85R WCI  20
WATERTON GATE    N/A     34  18  51 SW12G18     N/A  WCI  25
CARDSTON         N/A     32  18  55 W7          N/A  WCI  26
MILK RIVER       N/A     30  23  74 W10         N/A  WCI  21
$$

REGIONAL REPORTS...SASKATCHEWAN

CITY           SKY/WX    TMP DP  RH WIND       PRES   REMARKS
SWIFT CURRENT  PTCLDY    34  25  69 SW12      29.82F WCI  25
REGINA         CLEAR     34  32  93 SE10      29.85F WCI  26
SASKATOON      PTCLDY    28  27  93 E7        29.86R WCI  21
VAL MARIE        N/A     32  27  80 N1          N/A
ROCKGLEN         N/A     36  25  64 W7          N/A  WCI  30
ASSINIBOIA       N/A     27  27 100 NE1         N/A
$$




USA.gov is the U.S. government's official web portal to all federal, state and local government web resources and services.